User: anonymous
Location: Unspecified
(0.0000°N, 0.0000°E)
Time: 06:04:43
(UTC+00:00)
Language:

Tiros 10 - Orbit

View from above orbital plane
View from above orbital plane
View from above satellite
View from above satellite

Ground track
Ground track

The orbit data is extracted from the following two-line orbital elements,

1 01430U 65051A   14263.64689056  .00000092  00000-0  41319-4 0  6939
2 01430 098.0767 096.1291 0057465 047.1233 313.4762 14.39921443579100
Epoch (UTC): 20 September 2014 15:31:31
Eccentricity: 0.0057465
inclination: 98.0767°
perigee height: 718 km
apogee height: 800 km
right ascension of ascending node: 96.1291°
argument of perigee: 47.1233°
revolutions per day: 14.39921443
mean anomaly at epoch: 313.4762°
orbit number at epoch: 57910

The dashed part of the orbit path shows where the satellite is in the earth's shadow,  

DLR